User: anonymous   Login
Location: Brno
(49.2000°N, 16.6330°E)
Time: 20:43:34
(UTC+02:00)
Language:

Iridium 2 - Orbit

View from above orbital plane
View from above orbital plane
View from above satellite
View from above satellite

Ground track
Ground track

The orbit data is extracted from the following two-line orbital elements,

1 25527U 98066A   17289.65385987 +.00001592 +00000-0 +78924-4 0  9999
2 25527 085.5286 320.5439 0009516 019.5323 340.6280 15.16881038036774
Epoch (UTC): 16 October 2017 15:41:33
Eccentricity: 0.0009516
inclination: 85.5286°
perigee height: 509 km
apogee height: 522 km
right ascension of ascending node: 320.5439°
argument of perigee: 19.5323°
revolutions per day: 15.16881038
mean anomaly at epoch: 340.6280°
orbit number at epoch: 3677

The dashed part of the orbit path shows where the satellite is in the earth's shadow,  

DLR